| time (UTC) | temp F | wind direction | speed knots | gust knots | rain 1hr in | rain 24hr in | rain mn in | humidity % | barometer mb |
| 20260507103320 | 46 | 168 | 0.0 | 0.0 | 0.00 | 0.00 | 0.00 | 96 | 1021.3 |
| 20260507102729 | 47 | 204 | 0.0 | 0.0 | 0.00 | 0.00 | 0.00 | 96 | 1021.3 |
| 20260507101525 | 48 | 220 | 0.0 | 0.0 | 0.00 | 0.00 | 0.00 | 96 | 1020.9 |
| 20260507100912 | 48 | 167 | 0.0 | 0.0 | 0.00 | 0.00 | 0.00 | 95 | 1020.9 |
| 20260507100332 | 48 | 160 | 0.0 | 0.0 | 0.00 | 0.00 | 0.00 | 95 | 1020.9 |
| 20260507095740 | 48 | 165 | 0.0 | 0.0 | 0.00 | 0.00 | 0.00 | 95 | 1020.9 |
| 20260507095110 | 48 | 166 | 0.0 | 0.0 | 0.00 | 0.00 | 0.00 | 95 | 1020.9 |
| 20260507093930 | 48 | 178 | 0.0 | 0.0 | 0.00 | 0.00 | 0.00 | 95 | 1020.9 |
| 20260507093344 | 48 | 174 | 0.0 | 0.0 | 0.00 | 0.00 | 0.00 | 95 | 1020.9 |
| 20260507092744 | 48 | 162 | 0.0 | 0.0 | 0.00 | 0.00 | 0.00 | 95 | 1020.9 |
| 20260507092130 | 48 | 179 | 0.0 | 0.0 | 0.00 | 0.00 | 0.00 | 95 | 1020.9 |
| 20260507091510 | 48 | 162 | 0.0 | 0.0 | 0.00 | 0.00 | 0.00 | 95 | 1020.9 |
| 20260507090939 | 48 | 184 | 0.0 | 0.0 | 0.00 | 0.00 | 0.00 | 95 | 1020.9 |
| 20260507090318 | 48 | 181 | 0.0 | 0.0 | 0.00 | 0.00 | 0.00 | 94 | 1020.9 |
| 20260507085715 | 48 | 163 | 0.0 | 0.0 | 0.00 | 0.00 | 0.00 | 94 | 1021.3 |
| 20260507085109 | 48 | 176 | 0.0 | 0.0 | 0.00 | 0.00 | 0.00 | 94 | 1021.3 |
| 20260507084541 | 48 | 187 | 0.0 | 0.0 | 0.00 | 0.00 | 0.00 | 94 | 1020.9 |
| 20260507083925 | 48 | 158 | 0.0 | 0.0 | 0.00 | 0.00 | 0.00 | 94 | 1020.9 |
| 20260507083327 | 48 | 196 | 0.0 | 0.0 | 0.00 | 0.00 | 0.00 | 94 | 1020.6 |
| 20260507082121 | 48 | 213 | 0.0 | 0.0 | 0.00 | 0.00 | 0.00 | 93 | 1020.9 |
| 20260507081530 | 48 | 252 | 0.0 | 0.0 | 0.00 | 0.00 | 0.00 | 93 | 1020.9 |
| 20260507080917 | 48 | 188 | 0.0 | 0.0 | 0.00 | 0.00 | 0.00 | 93 | 1020.6 |
| 20260507080337 | 48 | 177 | 0.0 | 0.0 | 0.00 | 0.00 | 0.00 | 93 | 1020.9 |
| 20260507075716 | 48 | 209 | 0.0 | 0.0 | 0.00 | 0.00 | 0.00 | 93 | 1020.9 |
| 20260507075135 | 48 | 163 | 0.0 | 0.0 | 0.00 | 0.00 | 0.00 | 94 | 1020.9 |
| 20260507074541 | 48 | 154 | 0.0 | 0.0 | 0.00 | 0.00 | 0.00 | 93 | 1020.9 |
| 20260507073952 | 48 | 193 | 0.0 | 0.0 | 0.00 | 0.00 | 0.00 | 93 | 1020.9 |
| 20260507073328 | 48 | 156 | 0.0 | 0.0 | 0.00 | 0.00 | 0.00 | 93 | 1020.6 |
| 20260507072748 | 49 | 173 | 0.0 | 0.0 | 0.00 | 0.00 | 0.00 | 93 | 1020.6 |
| 20260507072116 | 49 | 171 | 0.0 | 0.0 | 0.00 | 0.00 | 0.00 | 93 | 1020.9 |
| 20260507071537 | 49 | 168 | 0.0 | 0.0 | 0.00 | 0.00 | 0.00 | 93 | 1020.9 |
| 20260507070310 | 49 | 204 | 0.0 | 1.7 | 0.00 | 0.00 | 0.00 | 93 | 1020.9 |
| 20260507065753 | 50 | 311 | 1.7 | 2.6 | 0.00 | 0.00 | 0.00 | 92 | 1020.9 |
| 20260507064514 | 50 | 336 | 1.7 | 1.7 | 0.00 | 0.00 | 0.00 | 91 | 1020.9 |
| 20260507063913 | 50 | 60 | 0.0 | 0.0 | 0.00 | 0.00 | 0.00 | 91 | 1020.9 |
| 20260507063347 | 50 | 234 | 0.0 | 0.0 | 0.00 | 0.00 | 0.00 | 90 | 1020.9 |
| 20260507062716 | 51 | 214 | 0.0 | 0.0 | 0.00 | 0.00 | 0.00 | 90 | 1020.9 |
| 20260507062130 | 51 | 199 | 0.0 | 0.0 | 0.00 | 0.00 | 0.00 | 89 | 1020.9 |
| 20260507061517 | 51 | 241 | 0.0 | 0.0 | 0.00 | 0.00 | 0.00 | 88 | 1020.9 |
| 20260507060928 | 51 | 265 | 0.0 | 0.0 | 0.00 | 0.00 | 0.00 | 88 | 1020.9 |
| 20260507060317 | 51 | 278 | 0.0 | 0.0 | 0.00 | 0.00 | 0.00 | 88 | 1020.9 |
| 20260507055734 | 51 | 306 | 0.0 | 0.0 | 0.00 | 0.00 | 0.00 | 88 | 1020.9 |
| 20260507055110 | 52 | 266 | 0.0 | 0.0 | 0.00 | 0.00 | 0.00 | 89 | 1021.3 |
| 20260507053926 | 52 | 147 | 0.0 | 0.0 | 0.00 | 0.00 | 0.00 | 88 | 1021.3 |
| 20260507052712 | 52 | 66 | 0.0 | 0.0 | 0.00 | 0.00 | 0.00 | 88 | 1021.3 |
| 20260507052147 | 52 | 88 | 0.0 | 0.0 | 0.00 | 0.00 | 0.00 | 88 | 1021.3 |
| 20260507051524 | 52 | 276 | 0.0 | 0.9 | 0.00 | 0.00 | 0.00 | 87 | 1021.3 |
| 20260507050911 | 52 | 187 | 0.0 | 0.0 | 0.00 | 0.00 | 0.00 | 87 | 1021.3 |
| 20260507050342 | 52 | 59 | 0.0 | 1.7 | 0.00 | 0.00 | 0.00 | 87 | 1021.3 |
| 20260507045750 | 52 | 137 | 0.0 | 1.7 | 0.00 | 0.00 | 0.00 | 87 | 1021.3 |
| 20260507045142 | 52 | 239 | 1.7 | 1.7 | 0.00 | 0.00 | 0.00 | 86 | 1021.3 |
| 20260507044539 | 52 | 342 | 1.7 | 2.6 | 0.00 | 0.00 | 0.00 | 87 | 1021.3 |
| 20260507043954 | 53 | 155 | 0.0 | 0.9 | 0.00 | 0.00 | 0.00 | 87 | 1021.3 |
| 20260507041541 | 54 | 140 | 0.0 | 0.0 | 0.00 | 0.00 | 0.00 | 82 | 1021.6 |
| 20260507040932 | 54 | 278 | 1.7 | 1.7 | 0.00 | 0.00 | 0.00 | 76 | 1021.6 |
| 20260507040332 | 54 | 155 | 0.0 | 1.7 | 0.00 | 0.00 | 0.00 | 75 | 1021.6 |
| 20260507035713 | 54 | 160 | 0.0 | 0.0 | 0.00 | 0.00 | 0.27 | 75 | 1021.3 |
| 20260507035145 | 54 | 252 | 0.0 | 1.7 | 0.00 | 0.00 | 0.27 | 75 | 1021.3 |
| 20260507034518 | 54 | 153 | 0.0 | 2.6 | 0.00 | 0.00 | 0.27 | 75 | 1021.3 |
| 20260507033911 | 54 | 307 | 1.7 | 2.6 | 0.00 | 0.00 | 0.27 | 76 | 1021.3 |
| 20260507033343 | 54 | 138 | 0.0 | 0.0 | 0.00 | 0.00 | 0.27 | 78 | 1021.3 |
| 20260507032121 | 54 | 149 | 0.0 | 0.0 | 0.00 | 0.00 | 0.27 | 82 | 1020.9 |
| 20260507030950 | 54 | 177 | 0.9 | 2.6 | 0.00 | 0.00 | 0.27 | 81 | 1020.9 |
| 20260507030351 | 54 | 160 | 0.0 | 0.0 | 0.00 | 0.00 | 0.27 | 84 | 1020.9 |
| 20260507025726 | 54 | 170 | 0.0 | 1.7 | 0.00 | 0.00 | 0.27 | 88 | 1020.9 |
| 20260507024540 | 54 | 146 | 0.0 | 1.7 | 0.00 | 0.00 | 0.27 | 93 | 1020.6 |
| 20260507023911 | 54 | 150 | 0.0 | 0.0 | 0.00 | 0.00 | 0.27 | 93 | 1020.6 |
| 20260507023354 | 54 | 150 | 0.0 | 0.0 | 0.00 | 0.00 | 0.27 | 93 | 1020.6 |
| 20260507022710 | 54 | 228 | 0.0 | 1.7 | 0.00 | 0.00 | 0.27 | 93 | 1020.9 |
| 20260507022117 | 54 | 114 | 0.0 | 1.7 | 0.00 | 0.00 | 0.27 | 93 | 1020.6 |
| 20260507021541 | 54 | 251 | 0.0 | 0.0 | 0.00 | 0.00 | 0.27 | 93 | 1020.6 |
| 20260507020939 | 54 | 255 | 1.7 | 1.7 | 0.00 | 0.00 | 0.27 | 93 | 1020.6 |
| 20260507020318 | 55 | 293 | 1.7 | 2.6 | 0.00 | 0.00 | 0.27 | 93 | 1020.6 |
| 20260507015728 | 55 | 226 | 0.0 | 0.0 | 0.00 | 0.00 | 0.27 | 93 | 1020.6 |
| 20260507015145 | 55 | 198 | 0.0 | 0.0 | 0.00 | 0.00 | 0.27 | 93 | 1020.6 |
| 20260507014513 | 55 | 126 | 0.0 | 0.0 | 0.00 | 0.00 | 0.27 | 93 | 1020.9 |
| 20260507013930 | 56 | 163 | 0.0 | 0.0 | 0.00 | 0.00 | 0.27 | 93 | 1020.9 |
| 20260507013354 | 56 | 283 | 0.9 | 0.9 | 0.00 | 0.00 | 0.27 | 93 | 1020.6 |
| 20260507012144 | 56 | 165 | 0.0 | 2.6 | 0.00 | 0.00 | 0.27 | 94 | 1020.3 |
| 20260507011532 | 56 | 176 | 0.0 | 0.0 | 0.00 | 0.00 | 0.27 | 94 | 1019.9 |
| 20260507010953 | 56 | 184 | 0.9 | 2.6 | 0.00 | 0.00 | 0.27 | 94 | 1019.9 |
| 20260507010329 | 56 | 172 | 0.0 | 1.7 | 0.00 | 0.00 | 0.27 | 95 | 1020.3 |
| 20260507005135 | 56 | 153 | 0.0 | 2.6 | 0.00 | 0.00 | 0.27 | 95 | 1019.9 |
| 20260507004543 | 56 | 158 | 0.0 | 0.0 | 0.00 | 0.00 | 0.27 | 94 | 1019.3 |
| 20260507003344 | 56 | 307 | 2.6 | 2.6 | 0.00 | 0.00 | 0.27 | 94 | 1019.9 |
| 20260507002728 | 56 | 208 | 1.7 | 2.6 | 0.00 | 0.00 | 0.27 | 94 | 1019.6 |
| 20260507001548 | 56 | 158 | 0.0 | 0.0 | 0.00 | 0.00 | 0.27 | 93 | 1018.6 |
| 20260507000314 | 57 | 211 | 0.0 | 1.7 | 0.00 | 0.00 | 0.27 | 93 | 1019.3 |
| 20260506235729 | 57 | 127 | 1.7 | 1.7 | 0.00 | 0.00 | 0.27 | 93 | 1019.3 |
| 20260506235133 | 57 | 168 | 0.0 | 0.0 | 0.00 | 0.00 | 0.27 | 93 | 1019.3 |
| 20260506234523 | 57 | 321 | 2.6 | 2.6 | 0.00 | 0.00 | 0.27 | 93 | 1019.3 |
| 20260506233939 | 57 | 162 | 0.0 | 0.0 | 0.00 | 0.00 | 0.27 | 93 | 1018.2 |
| 20260506233351 | 57 | 204 | 0.0 | 0.0 | 0.00 | 0.00 | 0.27 | 93 | 1018.9 |
| 20260506232743 | 57 | 175 | 0.0 | 0.0 | 0.00 | 0.00 | 0.27 | 92 | 1018.9 |
| 20260506232149 | 57 | 168 | 0.0 | 2.6 | 0.00 | 0.00 | 0.27 | 92 | 1019.3 |
| 20260506231525 | 57 | 123 | 1.7 | 1.7 | 0.00 | 0.00 | 0.27 | 92 | 1019.3 |
| 20260506230932 | 57 | 296 | 2.6 | 2.6 | 0.00 | 0.00 | 0.27 | 92 | 1018.9 |
| 20260506230329 | 57 | 167 | 1.7 | 3.5 | 0.00 | 0.00 | 0.27 | 92 | 1018.9 |
| 20260506225711 | 57 | 214 | 1.7 | 2.6 | 0.00 | 0.00 | 0.27 | 91 | 1018.6 |
| 20260506225110 | 57 | 201 | 0.0 | 0.0 | 0.00 | 0.00 | 0.27 | 90 | 1018.6 |
| 20260506224517 | 58 | 321 | 1.7 | 1.7 | 0.00 | 0.00 | 0.27 | 90 | 1018.9 |
| 20260506223932 | 58 | 300 | 2.6 | 2.6 | 0.00 | 0.00 | 0.27 | 90 | 1018.9 |
| 20260506223327 | 58 | 296 | 0.0 | 0.0 | 0.00 | 0.00 | 0.27 | 89 | 1018.9 |
| 20260506222722 | 58 | 290 | 1.7 | 2.6 | 0.00 | 0.00 | 0.27 | 88 | 1019.3 |
| 20260506222145 | 59 | 219 | 0.9 | 1.7 | 0.00 | 0.00 | 0.27 | 86 | 1019.3 |
| 20260506221515 | 60 | 198 | 0.0 | 0.9 | 0.00 | 0.00 | 0.27 | 85 | 1019.3 |
| 20260506220918 | 61 | 237 | 0.0 | 0.0 | 0.00 | 0.00 | 0.27 | 82 | 1019.3 |
| 20260506220343 | 61 | 173 | 2.6 | 2.6 | 0.00 | 0.00 | 0.27 | 81 | 1019.3 |
| 20260506215738 | 62 | 230 | 0.0 | 0.0 | 0.00 | 0.00 | 0.27 | 79 | 1018.9 |
| 20260506215142 | 62 | 265 | 1.7 | 1.7 | 0.00 | 0.00 | 0.27 | 79 | 1018.9 |
| 20260506214549 | 62 | 208 | 0.9 | 0.9 | 0.00 | 0.00 | 0.27 | 74 | 1018.6 |
| 20260506213317 | 62 | 176 | 1.7 | 1.7 | 0.00 | 0.00 | 0.27 | 74 | 1018.6 |
| 20260506212713 | 62 | 156 | 0.0 | 2.6 | 0.00 | 0.00 | 0.27 | 74 | 1018.6 |
| 20260506212127 | 62 | 175 | 0.0 | 2.6 | 0.00 | 0.00 | 0.27 | 74 | 1018.6 |
| 20260506210930 | 62 | 321 | 1.7 | 1.7 | 0.00 | 0.00 | 0.27 | 75 | 1018.2 |
| 20260506210347 | 62 | 131 | 1.7 | 1.7 | 0.00 | 0.00 | 0.27 | 77 | 1018.2 |
| 20260506204531 | 61 | 148 | 0.0 | 0.9 | 0.00 | 0.00 | 0.27 | 78 | 1018.6 |
| 20260506203311 | 61 | 144 | 1.7 | 3.5 | 0.00 | 0.00 | 0.27 | 75 | 1019.3 |
| 20260506202713 | 61 | 188 | 0.0 | 1.7 | 0.00 | 0.00 | 0.27 | 76 | 1018.9 |
| 20260506201533 | 61 | 181 | 0.0 | 3.5 | 0.00 | 0.00 | 0.27 | 76 | 1018.9 |
| 20260506200314 | 61 | 138 | 2.6 | 2.6 | 0.00 | 0.00 | 0.27 | 77 | 1018.9 |
| 20260506195752 | 61 | 181 | 0.9 | 1.7 | 0.00 | 0.00 | 0.27 | 79 | 1018.9 |
| 20260506194536 | 60 | 130 | 0.0 | 2.6 | 0.00 | 0.00 | 0.27 | 81 | 1019.3 |
| 20260506193953 | 60 | 164 | 0.0 | 2.6 | 0.00 | 0.00 | 0.27 | 80 | 1018.9 |
| 20260506193353 | 60 | 195 | 1.7 | 1.7 | 0.00 | 0.00 | 0.27 | 81 | 1018.9 |
| 20260506192743 | 60 | 202 | 0.0 | 1.7 | 0.00 | 0.00 | 0.27 | 82 | 1018.6 |
| 20260506192132 | 60 | 185 | 0.0 | 1.7 | 0.00 | 0.00 | 0.27 | 81 | 1018.6 |
| 20260506191543 | 60 | 158 | 0.0 | 0.9 | 0.00 | 0.00 | 0.27 | 80 | 1018.6 |
| 20260506190913 | 60 | 161 | 1.7 | 1.7 | 0.00 | 0.00 | 0.27 | 79 | 1018.6 |
| 20260506190341 | 60 | 145 | 1.7 | 2.6 | 0.00 | 0.00 | 0.27 | 78 | 1018.9 |
| 20260506185719 | 61 | 187 | 2.6 | 3.5 | 0.00 | 0.00 | 0.27 | 77 | 1018.6 |
| 20260506184536 | 60 | 185 | 1.7 | 5.2 | 0.00 | 0.00 | 0.27 | 77 | 1018.6 |
| 20260506183920 | 61 | 156 | 0.0 | 0.0 | 0.00 | 0.00 | 0.27 | 78 | 1018.6 |
| 20260506183330 | 61 | 90 | 1.7 | 1.7 | 0.00 | 0.00 | 0.27 | 82 | 1018.2 |
| 20260506182741 | 60 | 128 | 1.7 | 2.6 | 0.00 | 0.00 | 0.27 | 81 | 1018.6 |
| 20260506181541 | 60 | 144 | 0.9 | 1.7 | 0.00 | 0.00 | 0.27 | 83 | 1018.2 |
| 20260506180936 | 60 | 146 | 1.7 | 1.7 | 0.00 | 0.00 | 0.27 | 81 | 1018.6 |
| 20260506180354 | 59 | 170 | 0.0 | 0.9 | 0.00 | 0.00 | 0.27 | 79 | 1018.6 |
| 20260506175748 | 60 | 47 | 0.9 | 1.7 | 0.00 | 0.00 | 0.27 | 82 | 1018.6 |
| 20260506175127 | 59 | 152 | 2.6 | 2.6 | 0.00 | 0.00 | 0.27 | 84 | 1018.6 |
| 20260506174531 | 58 | 160 | 1.7 | 2.6 | 0.00 | 0.00 | 0.27 | 85 | 1018.9 |
| 20260506173943 | 58 | 146 | 0.0 | 1.7 | 0.00 | 0.00 | 0.27 | 86 | 1018.9 |
| 20260506173318 | 59 | 238 | 1.7 | 1.7 | 0.00 | 0.00 | 0.27 | 82 | 1018.6 |
| 20260506172712 | 58 | 170 | 0.0 | 2.6 | 0.00 | 0.00 | 0.27 | 88 | 1018.6 |
| 20260506172141 | 57 | 208 | 0.9 | 2.6 | 0.00 | 0.00 | 0.27 | 88 | 1018.6 |
| 20260506170953 | 57 | 344 | 3.5 | 3.5 | 0.00 | 0.00 | 0.27 | 86 | 1018.9 |
| 20260506170310 | 57 | 120 | 1.7 | 2.6 | 0.00 | 0.00 | 0.27 | 88 | 1018.9 |
| 20260506163946 | 57 | 39 | 2.6 | 2.6 | 0.00 | 0.00 | 0.27 | 90 | 1018.9 |
| 20260506163334 | 57 | 145 | 1.7 | 1.7 | 0.00 | 0.00 | 0.27 | 89 | 1018.9 |
| 20260506162749 | 57 | 159 | 0.0 | 3.5 | 0.00 | 0.00 | 0.27 | 89 | 1018.9 |
| 20260506162115 | 57 | 146 | 0.0 | 3.5 | 0.00 | 0.00 | 0.27 | 90 | 1018.6 |
| 20260506161546 | 56 | 146 | 0.0 | 0.0 | 0.00 | 0.00 | 0.27 | 92 | 1018.6 |
| 20260506160934 | 56 | 168 | 0.0 | 1.7 | 0.00 | 0.00 | 0.27 | 91 | 1018.6 |
| 20260506160351 | 55 | 183 | 1.7 | 1.7 | 0.00 | 0.00 | 0.27 | 91 | 1018.6 |
| 20260506155712 | 55 | 169 | 0.9 | 2.6 | 0.00 | 0.00 | 0.27 | 92 | 1018.9 |
| 20260506155128 | 55 | 189 | 1.7 | 2.6 | 0.00 | 0.00 | 0.27 | 92 | 1018.6 |
| 20260506154542 | 55 | 169 | 0.9 | 1.7 | 0.00 | 0.00 | 0.27 | 95 | 1018.6 |
| 20260506153930 | 54 | 250 | 1.7 | 1.7 | 0.00 | 0.00 | 0.27 | 95 | 1018.6 |
| 20260506153334 | 54 | 146 | 1.7 | 1.7 | 0.00 | 0.00 | 0.27 | 95 | 1018.6 |
| 20260506152733 | 53 | 142 | 0.9 | 4.3 | 0.00 | 0.00 | 0.27 | 94 | 1018.6 |
| 20260506151533 | 54 | 145 | 1.7 | 3.5 | 0.00 | 0.00 | 0.27 | 95 | 1018.2 |
| 20260506150933 | 54 | 162 | 0.0 | 0.9 | 0.00 | 0.00 | 0.27 | 96 | 1018.2 |
| 20260506150311 | 54 | 208 | 0.0 | 0.0 | 0.00 | 0.00 | 0.27 | 96 | 1018.2 |
| 20260506145750 | 54 | 165 | 0.0 | 0.0 | 0.00 | 0.00 | 0.27 | 97 | 1017.9 |
| 20260506145133 | 53 | 137 | 0.0 | 0.0 | 0.00 | 0.00 | 0.27 | 97 | 1017.9 |
| 20260506144538 | 53 | 197 | 2.6 | 3.5 | 0.00 | 0.00 | 0.27 | 96 | 1017.9 |
| 20260506143929 | 53 | 151 | 0.0 | 1.7 | 0.00 | 0.00 | 0.27 | 97 | 1017.9 |
| 20260506143317 | 53 | 228 | 5.2 | 5.2 | 0.00 | 0.00 | 0.27 | 97 | 1017.9 |
| 20260506142716 | 53 | 177 | 1.7 | 3.5 | 0.00 | 0.00 | 0.27 | 97 | 1017.6 |
| 20260506142117 | 53 | 55 | 0.9 | 1.7 | 0.00 | 0.00 | 0.27 | 97 | 1017.6 |
| 20260506141523 | 53 | 213 | 1.7 | 3.5 | 0.00 | 0.00 | 0.27 | 97 | 1017.2 |
| 20260506140935 | 53 | 142 | 0.0 | 2.6 | 0.00 | 0.00 | 0.27 | 98 | 1017.2 |
| 20260506140343 | 54 | 155 | 0.0 | 0.0 | 0.00 | 0.00 | 0.27 | 98 | 1017.2 |
| 20260506135734 | 53 | 147 | 1.7 | 6.1 | 0.00 | 0.00 | 0.27 | 98 | 1017.2 |
| 20260506135139 | 54 | 147 | 2.6 | 2.6 | 0.00 | 0.00 | 0.26 | 98 | 1017.2 |
| 20260506134512 | 54 | 150 | 0.0 | 0.0 | 0.00 | 0.00 | 0.26 | 98 | 1017.2 |
| 20260506133920 | 54 | 143 | 0.0 | 1.7 | 0.00 | 0.00 | 0.26 | 98 | 1017.2 |
| 20260506133350 | 54 | 160 | 2.6 | 2.6 | 0.00 | 0.00 | 0.26 | 97 | 1017.2 |
| 20260506132744 | 54 | 157 | 1.7 | 3.5 | 0.00 | 0.00 | 0.26 | 97 | 1016.9 |
| 20260506132120 | 54 | 216 | 3.5 | 4.3 | 0.00 | 0.00 | 0.26 | 97 | 1016.5 |
| 20260506131514 | 55 | 148 | 0.0 | 3.5 | 0.00 | 0.00 | 0.26 | 98 | 1016.5 |
| 20260506130920 | 55 | 338 | 2.6 | 3.5 | 0.00 | 0.00 | 0.26 | 98 | 1016.2 |
| 20260506125727 | 57 | 261 | 2.6 | 5.2 | 0.00 | 0.00 | 0.26 | 97 | 1015.9 |
| 20260506125146 | 58 | 287 | 1.7 | 3.5 | 0.00 | 0.00 | 0.26 | 98 | 1015.5 |
| 20260506124511 | 60 | 157 | 0.0 | 0.0 | 0.00 | 0.00 | 0.25 | 99 | 1015.2 |
| 20260506123932 | 60 | 156 | 0.0 | 0.0 | 0.00 | 0.00 | 0.25 | 99 | 1014.9 |
| 20260506123320 | 60 | 160 | 0.0 | 0.0 | 0.00 | 0.00 | 0.25 | 99 | 1014.9 |
| 20260506122715 | 60 | 161 | 0.0 | 0.0 | 0.00 | 0.00 | 0.25 | 99 | 1014.9 |
| 20260506122149 | 60 | 159 | 0.0 | 0.0 | 0.00 | 0.00 | 0.25 | 99 | 1014.9 |
| 20260506121518 | 60 | 165 | 0.0 | 0.0 | 0.00 | 0.00 | 0.25 | 99 | 1015.2 |
| 20260506120310 | 59 | 175 | 0.0 | 0.0 | 0.00 | 0.00 | 0.25 | 99 | 1014.5 |
| 20260506115715 | 59 | 165 | 0.0 | 0.0 | 0.00 | 0.00 | 0.25 | 99 | 1014.5 |
| 20260506115122 | 59 | 163 | 0.0 | 0.0 | 0.00 | 0.00 | 0.25 | 99 | 1014.2 |
| 20260506114533 | 59 | 160 | 0.0 | 0.0 | 0.00 | 0.00 | 0.25 | 99 | 1014.2 |
| 20260506113948 | 59 | 166 | 0.0 | 0.0 | 0.00 | 0.00 | 0.25 | 99 | 1014.2 |
| 20260506112733 | 59 | 204 | 0.0 | 2.6 | 0.00 | 0.00 | 0.25 | 99 | 1014.2 |
| 20260506111515 | 59 | 179 | 0.0 | 0.0 | 0.00 | 0.00 | 0.25 | 99 | 1013.8 |
| 20260506110913 | 58 | 134 | 0.0 | 0.0 | 0.00 | 0.00 | 0.25 | 99 | 1013.5 |
| 20260506105711 | 58 | 160 | 0.0 | 0.0 | 0.00 | 0.00 | 0.25 | 99 | 1013.2 |
| 20260506105146 | 58 | 161 | 0.0 | 0.0 | 0.00 | 0.00 | 0.25 | 99 | 1013.2 |